Simultaneous Nadir Overpasses (SNOs) Predictions

Prediction of SNOs between GOES-16 and METOP-A Satellite Orbit:

Table of predicted SNOs for the next 14.0 days since TLE Epoch: 1/29/2022
Index Date Time (GOES-16) GOES-16 Lat,Lon METOP-A Lat,Lon Distance(km) Time Diff (sec)
1 01/30/2022 12:53:16 -0.03, -75.21 -0.57, -72.82 272.49 80
2 01/31/2022 01:13:38 0.02, -75.19 -0.39, -77.09 215.40 80
3 02/02/2022 12:55:07 -0.01, -75.22 -0.49, -73.13 237.92 80
4 02/03/2022 01:15:27 0.00, -75.20 -0.46, -77.39 248.14 80
5 02/05/2022 12:56:59 0.00, -75.24 -0.38, -73.44 205.19 80
6 02/06/2022 01:17:14 -0.01, -75.23 -0.55, -77.67 278.31 80
7 02/08/2022 12:58:51 0.00, -75.28 -0.31, -73.75 173.52 80
8 02/09/2022 01:19:00 -0.01, -75.27 -0.57, -77.97 306.77 80
9 02/11/2022 13:00:45 0.00, -75.33 -0.28, -74.08 142.48 80
